| time (UTC) | temp C | wind direction | speed KPH | gust KPH | rain 1hr cm | rain 24hr cm | rain mn cm | humidity % | barometer mb |
| 20260906004550 | 21 | 280 | 8.0 | 0.0 | 0.00 | 0.00 | 0.00 | 38 | 1013.8 |
| 20260906003029 | 22 | 290 | 9.7 | 0.0 | 0.00 | 0.00 | 0.00 | 35 | 1013.7 |
| 20260906001532 | 22 | 293 | 6.4 | 0.0 | 0.00 | 0.00 | 0.00 | 33 | 1013.7 |
| 20260906000011 | 22 | 306 | 4.8 | 0.0 | 0.00 | 0.00 | 0.00 | 31 | 1013.7 |
| 20260905234510 | 22 | 221 | 3.2 | 0.0 | 0.00 | 0.00 | 0.00 | 32 | 1013.8 |
| 20260905233100 | 22 | 294 | 4.8 | 0.0 | 0.00 | 0.00 | 0.00 | 31 | 1013.9 |
| 20260905231549 | 22 | 32 | 0.0 | 0.0 | 0.00 | 0.00 | 0.00 | 29 | 1013.9 |
| 20260905230036 | 22 | 32 | 1.6 | 0.0 | 0.00 | 0.00 | 0.00 | 29 | 1014.0 |
| 20260905224535 | 22 | 21 | 3.2 | 0.0 | 0.00 | 0.00 | 0.00 | 31 | 1014.1 |
| 20260905223038 | 22 | 65 | 0.0 | 0.0 | 0.00 | 0.00 | 0.00 | 29 | 1014.3 |
| 20260905221543 | 22 | 66 | 3.2 | 0.0 | 0.00 | 0.00 | 0.00 | 29 | 1014.4 |
| 20260905220030 | 22 | 47 | 3.2 | 0.0 | 0.00 | 0.00 | 0.00 | 30 | 1014.6 |
| 20260905213027 | 22 | 276 | 3.2 | 0.0 | 0.00 | 0.00 | 0.00 | 30 | 1014.8 |
| 20260905211539 | 21 | 288 | 6.4 | 0.0 | 0.00 | 0.00 | 0.00 | 30 | 1015.0 |
| 20260905210006 | 22 | 304 | 3.2 | 0.0 | 0.00 | 0.00 | 0.00 | 30 | 1015.2 |
| 20260905204502 | 21 | 244 | 1.6 | 0.0 | 0.00 | 0.00 | 0.00 | 36 | 1015.3 |
| 20260905203044 | 20 | 219 | 4.8 | 0.0 | 0.00 | 0.00 | 0.00 | 37 | 1015.3 |
| 20260905201603 | 21 | 78 | 0.0 | 0.0 | 0.00 | 0.00 | 0.00 | 38 | 1015.6 |
| 20260905200042 | 20 | 76 | 1.6 | 0.0 | 0.00 | 0.00 | 0.00 | 42 | 1015.7 |
| 20260905194524 | 20 | 69 | 3.2 | 0.0 | 0.00 | 0.00 | 0.00 | 46 | 1016.0 |
| 20260905193022 | 19 | 355 | 1.6 | 0.0 | 0.00 | 0.00 | 0.00 | 47 | 1016.1 |
| 20260905191519 | 19 | 324 | 1.6 | 0.0 | 0.00 | 0.00 | 0.00 | 51 | 1016.3 |
| 20260905190016 | 18 | 325 | 1.6 | 0.0 | 0.00 | 0.00 | 0.00 | 55 | 1016.5 |
| 20260905184514 | 18 | 322 | 1.6 | 0.0 | 0.00 | 0.00 | 0.00 | 55 | 1016.6 |
| 20260905183012 | 17 | 323 | 1.6 | 0.0 | 0.00 | 0.00 | 0.00 | 57 | 1016.7 |
| 20260905181509 | 17 | 331 | 0.0 | 0.0 | 0.00 | 0.00 | 0.00 | 55 | 1016.9 |
| 20260905180059 | 16 | 332 | 1.6 | 0.0 | 0.00 | 0.00 | 0.00 | 59 | 1016.9 |
| 20260905174559 | 16 | 9 | 0.0 | 0.0 | 0.00 | 0.00 | 0.00 | 61 | 1017.0 |
| 20260905173027 | 16 | 9 | 0.0 | 0.0 | 0.00 | 0.00 | 0.00 | 64 | 1017.2 |
| 20260905171538 | 15 | 9 | 0.0 | 0.0 | 0.00 | 0.00 | 0.00 | 68 | 1017.3 |
| 20260905170004 | 15 | 10 | 0.0 | 0.0 | 0.00 | 0.00 | 0.00 | 72 | 1017.4 |
| 20260905164600 | 13 | 10 | 0.0 | 0.0 | 0.00 | 0.00 | 0.00 | 79 | 1017.4 |
| 20260905163057 | 13 | 10 | 0.0 | 0.0 | 0.00 | 0.00 | 0.00 | 85 | 1017.4 |
| 20260905161540 | 12 | 10 | 0.0 | 0.0 | 0.00 | 0.00 | 0.00 | 90 | 1017.4 |
| 20260905160044 | 11 | 10 | 0.0 | 0.0 | 0.00 | 0.00 | 0.00 | 93 | 1017.4 |
| 20260905154518 | 10 | 10 | 0.0 | 0.0 | 0.00 | 0.00 | 0.00 | 94 | 1017.6 |
| 20260905153010 | 8 | 10 | 0.0 | 0.0 | 0.00 | 0.00 | 0.00 | 94 | 1017.8 |
| 20260905151546 | 7 | 10 | 0.0 | 0.0 | 0.00 | 0.00 | 0.00 | 94 | 1017.9 |
| 20260905150043 | 6 | 10 | 0.0 | 0.0 | 0.00 | 0.00 | 0.00 | 94 | 1017.8 |
| 20260905144535 | 5 | 10 | 0.0 | 0.0 | 0.00 | 0.00 | 0.00 | 93 | 1017.7 |
| 20260905143022 | 5 | 10 | 0.0 | 0.0 | 0.00 | 0.00 | 0.00 | 93 | 1017.9 |
| 20260905141502 | 5 | 10 | 0.0 | 0.0 | 0.00 | 0.00 | 0.00 | 94 | 1017.7 |
| 20260905140059 | 3 | 10 | 0.0 | 0.0 | 0.00 | 0.00 | 0.18 | 93 | 1017.6 |
| 20260905134544 | 2 | 10 | 0.0 | 0.0 | 0.00 | 0.00 | 0.18 | 94 | 1017.5 |
| 20260905133037 | 2 | 10 | 0.0 | 0.0 | 0.00 | 0.00 | 0.18 | 93 | 1017.3 |
| 20260905131517 | 2 | 10 | 0.0 | 0.0 | 0.00 | 0.00 | 0.18 | 93 | 1017.2 |
| 20260905130018 | 2 | 10 | 0.0 | 0.0 | 0.00 | 0.00 | 0.18 | 93 | 1017.0 |
| 20260905124556 | 2 | 10 | 0.0 | 0.0 | 0.00 | 0.00 | 0.18 | 93 | 1016.8 |
| 20260905123055 | 2 | 10 | 0.0 | 0.0 | 0.00 | 0.00 | 0.18 | 93 | 1016.7 |
| 20260905121537 | 2 | 10 | 0.0 | 0.0 | 0.00 | 0.00 | 0.18 | 93 | 1016.7 |
| 20260905120038 | 2 | 10 | 0.0 | 0.0 | 0.00 | 0.00 | 0.18 | 92 | 1016.8 |
| 20260905114517 | 3 | 10 | 0.0 | 0.0 | 0.00 | 0.00 | 0.18 | 92 | 1016.5 |
| 20260905113012 | 3 | 10 | 0.0 | 0.0 | 0.00 | 0.00 | 0.18 | 92 | 1016.3 |
| 20260905111605 | 3 | 10 | 0.0 | 0.0 | 0.00 | 0.00 | 0.18 | 92 | 1016.1 |
| 20260905110051 | 3 | 10 | 0.0 | 0.0 | 0.00 | 0.00 | 0.18 | 92 | 1015.8 |
| 20260905104543 | 3 | 10 | 0.0 | 0.0 | 0.00 | 0.00 | 0.18 | 92 | 1015.7 |
| 20260905103036 | 3 | 10 | 0.0 | 0.0 | 0.00 | 0.00 | 0.18 | 92 | 1015.8 |
| 20260905101514 | 4 | 10 | 0.0 | 0.0 | 0.00 | 0.00 | 0.18 | 92 | 1015.9 |
| 20260905100013 | 4 | 10 | 0.0 | 0.0 | 0.00 | 0.00 | 0.18 | 92 | 1015.7 |
| 20260905094606 | 4 | 10 | 0.0 | 0.0 | 0.00 | 0.00 | 0.18 | 92 | 1015.7 |
| 20260905093054 | 4 | 10 | 0.0 | 0.0 | 0.00 | 0.00 | 0.18 | 92 | 1015.7 |
| 20260905091535 | 4 | 10 | 0.0 | 0.0 | 0.00 | 0.00 | 0.18 | 91 | 1015.6 |
| 20260905090033 | 5 | 10 | 0.0 | 0.0 | 0.00 | 0.00 | 0.18 | 91 | 1015.6 |
| 20260905084522 | 5 | 10 | 0.0 | 0.0 | 0.00 | 0.00 | 0.18 | 91 | 1015.4 |
| 20260905083016 | 5 | 10 | 0.0 | 0.0 | 0.00 | 0.00 | 0.18 | 91 | 1015.2 |
| 20260905081603 | 5 | 10 | 0.0 | 0.0 | 0.00 | 0.00 | 0.18 | 90 | 1015.1 |
| 20260905080057 | 6 | 10 | 0.0 | 0.0 | 0.00 | 0.00 | 0.18 | 91 | 1015.4 |
| 20260905074533 | 6 | 10 | 0.0 | 0.0 | 0.00 | 0.00 | 0.18 | 90 | 1015.1 |
| 20260905073041 | 6 | 10 | 0.0 | 0.0 | 0.00 | 0.00 | 0.18 | 90 | 1014.9 |
| 20260905071515 | 6 | 10 | 0.0 | 0.0 | 0.00 | 0.00 | 0.18 | 90 | 1015.0 |
| 20260905070014 | 6 | 10 | 0.0 | 0.0 | 0.00 | 0.00 | 0.18 | 89 | 1014.5 |
| 20260905064557 | 6 | 10 | 0.0 | 0.0 | 0.00 | 0.00 | 0.18 | 89 | 1014.7 |
| 20260905063052 | 6 | 10 | 0.0 | 0.0 | 0.00 | 0.00 | 0.18 | 89 | 1014.7 |
| 20260905061550 | 7 | 10 | 0.0 | 0.0 | 0.00 | 0.00 | 0.18 | 88 | 1014.7 |
| 20260905060033 | 7 | 10 | 0.0 | 0.0 | 0.00 | 0.00 | 0.18 | 88 | 1014.8 |
| 20260905054517 | 7 | 10 | 0.0 | 0.0 | 0.00 | 0.00 | 0.18 | 87 | 1014.2 |
| 20260905053020 | 8 | 10 | 0.0 | 0.0 | 0.00 | 0.00 | 0.18 | 87 | 1014.4 |
| 20260905051557 | 8 | 10 | 0.0 | 0.0 | 0.00 | 0.00 | 0.18 | 86 | 1014.5 |
| 20260905050057 | 8 | 10 | 0.0 | 0.0 | 0.00 | 0.00 | 0.18 | 86 | 1014.6 |
| 20260905044540 | 8 | 10 | 0.0 | 0.0 | 0.00 | 0.00 | 0.18 | 84 | 1014.7 |
| 20260905043105 | 9 | 10 | 0.0 | 0.0 | 0.00 | 0.00 | 0.18 | 83 | 1014.9 |
| 20260905041522 | 10 | 10 | 0.0 | 0.0 | 0.00 | 0.00 | 0.18 | 82 | 1014.9 |
| 20260905040026 | 10 | 10 | 0.0 | 0.0 | 0.00 | 0.00 | 0.18 | 80 | 1015.0 |
| 20260905034511 | 10 | 10 | 0.0 | 0.0 | 0.00 | 0.00 | 0.18 | 79 | 1014.8 |
| 20260905033008 | 11 | 10 | 0.0 | 0.0 | 0.00 | 0.00 | 0.18 | 77 | 1014.7 |
| 20260905031508 | 11 | 10 | 0.0 | 0.0 | 0.00 | 0.00 | 0.18 | 74 | 1014.7 |
| 20260905030008 | 12 | 10 | 0.0 | 0.0 | 0.00 | 0.00 | 0.18 | 70 | 1014.7 |
| 20260905024508 | 13 | 10 | 0.0 | 0.0 | 0.00 | 0.00 | 0.18 | 67 | 1014.5 |
| 20260905023007 | 14 | 10 | 0.0 | 0.0 | 0.00 | 0.00 | 0.18 | 64 | 1014.4 |
| 20260905021507 | 15 | 10 | 0.0 | 0.0 | 0.00 | 0.00 | 0.18 | 62 | 1014.3 |
| 20260905020006 | 15 | 10 | 0.0 | 0.0 | 0.00 | 0.00 | 0.18 | 60 | 1014.1 |
| 20260905014547 | 15 | 10 | 0.0 | 0.0 | 0.00 | 0.00 | 0.18 | 58 | 1014.3 |
| 20260905013056 | 16 | 10 | 0.0 | 0.0 | 0.00 | 0.00 | 0.18 | 56 | 1014.4 |
| 20260905011530 | 16 | 10 | 1.6 | 0.0 | 0.00 | 0.00 | 0.18 | 53 | 1014.2 |
| 20260905010031 | 16 | 10 | 1.6 | 0.0 | 0.00 | 0.00 | 0.18 | 54 | 1014.2 |